Home   Weather   Santarém   Past weeks
Flag for Brazil

Past Weather in Santarém, Pará, Brazil — Yesterday and Last 2 Weeks

Now
75 °F

Passing clouds.


Feels Like: 73 °F
Forecast: 83 / 76 °F
Wind: 3 mph from South

Location: Santarem-Aeroporto

Current Time: Feb 22, 2020 at 2:29:44 am

Latest Report: Feb 22, 2020 at 2:00 am


Visibility: N/A

Pressure: 29.86 "Hg

Humidity: 100%

Dew Point: 75 °F

Location of SantarémLocation

Past Weather in Santarém — Graph

°F

Santarém Temperature Yesterday

Maximum temperature yesterday: 84 °F (at 4:00 pm)
Minimum temperature yesterday: 75 °F (at 12:00 am)
Average temperature yesterday: 77 °F

High & Low Weather Summary for the Past Weeks

 TemperatureHumidityPressure
High90 °F (Feb 16, 3:00 pm)100% (Feb 8, 11:00 pm)30.01 "Hg (Feb 8, 11:00 pm)
Low73 °F (Feb 9, 5:00 am)62% (Feb 16, 6:00 pm)29.68 "Hg (Feb 20, 4:30 am)
Average79 °F88%29.86 "Hg
* Reported Feb 7 1:00 am — Feb 22 1:00 am, Santarém. Weather by CustomWeather, © 2020

Note: Actual official high and low records may vary slightly from our data, if they occured in-between our weather recording intervals... More about our weather records

Santarém Weather History for the Previous 24 Hours

Scroll right to see more
 ConditionsComfort  
Time TempWeatherWind HumidityBarometerVisibility
1:00 am
Sat, Feb 22
75 °FPassing clouds.2 mph100%29.89 "HgN/A
12:00 am75 °FPassing clouds.No wind100%29.89 "HgN/A
11:00 pm
Fri, Feb 21
75 °FClear.1 mph100%29.89 "Hg10 mi
10:00 pm75 °FClear.2 mph94%29.89 "Hg10 mi
9:00 pm75 °FClear.1 mph100%29.86 "Hg10 mi
8:00 pm75 °FPassing clouds.3 mph100%29.83 "HgN/A
7:00 pm77 °FPartly sunny.2 mph94%29.83 "HgN/A
6:00 pm79 °FPartly sunny.8 mph84%29.83 "HgN/A
5:00 pm82 °FBroken clouds.7 mph84%29.83 "HgN/A
4:00 pm84 °FScattered clouds.5 mph79%29.83 "HgN/A
3:00 pm82 °FScattered clouds.6 mph84%29.83 "HgN/A
2:00 pm82 °FScattered clouds.7 mph84%29.89 "HgN/A
1:00 pm82 °FPartly sunny.7 mph84%29.92 "HgN/A
12:00 pm81 °FPartly sunny.10 mph79%29.95 "HgN/A
11:00 am79 °FMore clouds than sun.9 mph89%29.95 "HgN/A
10:00 am77 °FLight rain. Cloudy.7 mph94%29.95 "HgN/A
9:00 am75 °FCloudy.12 mph94%29.92 "HgN/A
8:00 am75 °FLight rain. Mostly cloudy.14 mph100%29.89 "Hg2 mi
7:30 am75 °FRain. Mostly cloudy.12 mph100%29.89 "Hg2 mi
7:00 am75 °FLight rain. Mostly cloudy.8 mph94%29.86 "Hg4 mi
6:00 am75 °FLight rain. Mostly cloudy.8 mph100%29.86 "Hg5 mi
5:00 am75 °FLight rain. Mostly cloudy.5 mph100%29.83 "Hg5 mi
4:00 am75 °FLight rain. Mostly cloudy.5 mph100%29.83 "Hg5 mi
3:00 am75 °FPassing clouds.5 mph100%29.83 "HgN/A
2:00 am75 °FPassing clouds.2 mph100%29.83 "HgN/A
Weather by CustomWeather, © 2020

See weather overview

Advertising